Location: *
(48.8667°N, 2.3331°E)
Time: 08:15:14
(UTC+00:00)

Cosmos 2061 Rocket - Pass Details

Date: 14 August 2020
Orbit: 966 x 1012 km, 82.9° (Epoch: 23 September)

Event Time Altitude Azimuth Distance (km) Brightness Sun altitude
Exits shadow 22:06:33 39° 188° (S) 1,420 4.4 -22.7°
Maximum altitude 22:09:05 90° 291° (WNW) 975 3.9 -22.9°
Drops below altitude 10° 22:15:19 10° 9° (N) 2,720 7.0 -23.4°
Sets 22:17:50 0° 10° (N) 3,673 7.9 -23.5°
